Maxton, NC

8:43 PM EST on February 23, 2017 (GMT -0500)
Laurinburg-Maxton

Weather History for KMEB - June, 2013

Change the Weather History Date:

Friday, June 28, 2013

  Actual Average (KHFF) Record (KHFF)
Temperature  
Mean Temperature 80 °F -  
Max Temperature 90 °F 86 °F 97 °F (2010)
Min Temperature 71 °F 69 °F 57 °F (2012)
Cooling Degree Days 16    
Growing Degree Days 30 (Base 50)    
Moisture  
Dew Point 73 °F    
Average Humidity 84    
Maximum Humidity 100    
Minimum Humidity 55    
Precipitation  
Precipitation 0.30 in - - ()
Sea Level Pressure  
Sea Level Pressure 29.72 in    
Wind  
Wind Speed 9 mph (SW)    
Max Wind Speed 20 mph    
Max Gust Speed 25 mph    
Visibility 8 miles    
Events Rain , Thunderstorm    
Averages and records for this station are not official NWS values.
T = Trace of Precipitation, MM = Missing Value Source: NWS Daily Summary

Daily Weather History Graph

Daily Weather History Graph

Search for Another Location

Airport or City:

Trip Planner

Search our weather history database for the weather conditions in past years. The results will help you decide how hot, cold, wet, or windy it might be!

Date:

Astronomy

Jun. 28, 2013 Rise Set
Actual Time 6:06 AM EDT 8:34 PM EDT
Civil Twilight 5:37 AM EDT 9:04 PM EDT
Nautical Twilight 5:00 AM EDT 9:40 PM EDT
Astronomical Twilight 4:20 AM EDT 10:21 PM EDT
Moon No Moon Rise 11:57 AM EDT (6/28)
Length of Visible Light 15h 27m
Length of Day
14h 28m
Waning Gibbous, 66% of the Moon is Illuminated
Jun 28
Waning Gibbous
Jun 30
Last Quarter
Jul 8
New
Jul 15
First Quarter
Jul 22
Full

Hourly Weather History & Observations

Time (EDT) Temp. Heat Index Dew Point Humidity Pressure Visibility Wind Dir Wind Speed Gust Speed Precip Events Conditions
12:25 AM 73.4 °F - 73.4 °F 100% 29.79 in 5.0 mi SSE 6.9 mph - 0.10 in   Overcast
12:39 AM 73.4 °F - 73.4 °F 100% 29.78 in 7.0 mi South 8.1 mph - 0.14 in Thunderstorm Overcast
12:52 AM 75.0 °F - 73.9 °F 96% 29.78 in 2.5 mi SW 13.8 mph 19.6 mph 0.16 in Rain , Thunderstorm Heavy Thunderstorms and Rain
12:55 AM 75.2 °F - 73.4 °F 94% 29.79 in 3.0 mi SW 12.7 mph - 0.01 in Rain , Thunderstorm Light Thunderstorms and Rain
1:02 AM 75.2 °F - 73.4 °F 94% 29.80 in 5.0 mi SW 12.7 mph - 0.02 in Rain , Thunderstorm Thunderstorms and Rain
1:12 AM 75.2 °F - 73.4 °F 94% 29.80 in 6.0 mi SSW 19.6 mph 25.3 mph 0.04 in Rain , Thunderstorm Light Rain
1:52 AM 73.9 °F - 72.0 °F 93% 29.78 in 9.0 mi SSW 19.6 mph 24.2 mph 0.09 in Rain Light Rain
2:52 AM 73.0 °F - 70.0 °F 90% 29.76 in 10.0 mi SW 4.6 mph - 0.05 in   Clear
3:52 AM 72.0 °F - 71.1 °F 97% 29.74 in 8.0 mi SSW 8.1 mph - N/A   Partly Cloudy
4:52 AM 72.0 °F - 71.1 °F 97% 29.72 in 7.0 mi SW 8.1 mph - N/A   Clear
5:52 AM 72.0 °F - 71.1 °F 97% 29.72 in 8.0 mi WSW 8.1 mph - N/A   Clear
6:19 AM 71.6 °F - 71.6 °F 100% 29.73 in 6.0 mi WSW 8.1 mph - N/A   Partly Cloudy
6:41 AM 71.6 °F - 71.6 °F 100% 29.74 in 6.0 mi WSW 5.8 mph - N/A   Mostly Cloudy
6:52 AM 73.0 °F - 72.0 °F 96% 29.74 in 6.0 mi WSW 6.9 mph - N/A   Overcast
7:52 AM 73.0 °F - 72.0 °F 96% 29.75 in 5.0 mi West 8.1 mph - N/A   Overcast
8:52 AM 75.0 °F - 73.9 °F 96% 29.74 in 5.0 mi West 8.1 mph - N/A   Overcast
9:52 AM 78.1 °F - 73.9 °F 87% 29.74 in 8.0 mi WSW 5.8 mph - N/A   Mostly Cloudy
10:13 AM 80.6 °F 85.4 °F 73.4 °F 79% 29.75 in 9.0 mi West 9.2 mph - N/A   Scattered Clouds
10:52 AM 82.0 °F 89.4 °F 75.9 °F 82% 29.73 in 10.0 mi SSW 5.8 mph - N/A   Clear
11:52 AM 84.9 °F 92.1 °F 73.9 °F 69% 29.73 in 10.0 mi WNW 3.5 mph - N/A   Partly Cloudy
12:52 PM 86.0 °F 93.8 °F 73.9 °F 67% 29.72 in 10.0 mi SW 6.9 mph - N/A   Clear
1:52 PM 88.0 °F 94.7 °F 72.0 °F 59% 29.70 in 10.0 mi West 6.9 mph - N/A   Partly Cloudy
2:52 PM 88.0 °F 95.6 °F 73.0 °F 61% 29.68 in 10.0 mi SW 9.2 mph - N/A   Scattered Clouds
3:52 PM 88.0 °F 95.6 °F 73.0 °F 61% 29.66 in 10.0 mi SSW 11.5 mph - N/A   Scattered Clouds
4:52 PM 90.0 °F 96.9 °F 72.0 °F 55% 29.65 in 10.0 mi SW 12.7 mph 19.6 mph N/A   Scattered Clouds
5:52 PM 89.1 °F 97.0 °F 73.0 °F 59% 29.62 in 10.0 mi SSW 12.7 mph - N/A   Partly Cloudy
6:52 PM 87.1 °F 94.5 °F 73.0 °F 63% 29.63 in 10.0 mi SW 10.4 mph - N/A   Clear
7:52 PM 84.9 °F 92.1 °F 73.9 °F 69% 29.64 in 10.0 mi SSW 8.1 mph - N/A   Mostly Cloudy
8:52 PM 82.0 °F 87.9 °F 73.9 °F 76% 29.64 in 10.0 mi SSW 5.8 mph - N/A   Clear
9:52 PM 81.0 °F 86.7 °F 75.0 °F 82% 29.64 in 10.0 mi Calm Calm - N/A   Clear
10:52 PM 81.0 °F 86.2 °F 73.9 °F 79% 29.65 in 10.0 mi South 6.9 mph - N/A   Partly Cloudy
11:52 PM 80.1 °F 85.1 °F 75.0 °F 85% 29.65 in 10.0 mi SW 8.1 mph - N/A   Clear